Вернуться в каталог

STARLINK-6333

АктивенСвязьVLEO
NORAD 56521·PAYLOAD·🇺🇸 United States

Запущен May 14, 2023 с Cape Canaveral Space Force Station

Loading…

Ближайшие Пролёты (ближайшие 24 часа)

TLE

СвежийSource: CelesTrak SupGP

Эпоха: Sep 15, 2026, 01:32 UTC

1 56521C 23065U   26258.06437500 -.00029320  00000+0 -10621-2 0  2580
2 56521  43.0016 226.6032 0000304 252.0668 324.2295 15.27589738    15

Отслеживайте STARLINK-6333 в реальном времени с AllMySat

Download on the App Store